Preview of NWS' New Version of Forecast
This preview is not operational and should not be used for support decisions.

Regional Weather Roundup (RWR)

Issued by National Weather Service (NWS)

                            
000
ASUS46 KPQR 172010
RWROR 

OREGON REGIONAL WEATHER ROUNDUP
NATIONAL WEATHER SERVICE PORTLAND OR
100 PM PDT WED APR 17 2019

NOTE: "FAIR" INDICATES FEW OR NO CLOUDS BELOW 12,000 FEET WITH
NO SIGNIFICANT WEATHER AND/OR OBSTRUCTIONS TO VISIBILITY.

ORZ001>013-172100-
NORTHWEST OREGON

  
CITY           SKY/WX    TMP DP  RH WIND       PRES   REMARKS
ASTORIA        PTSUNNY   56  49  77 S16G22    30.32F                  
TILLAMOOK      CLOUDY    55  50  82 SE6       30.37S                  
NEWPORT        CLOUDY    55  50  82 SW13      30.40S                  
PORTLAND       CLOUDY    59  46  62 S8        30.36F                  
VANCOUVER WA   CLOUDY    57  46  66 SE3       30.36S                  
SCAPPOOSE      CLOUDY    59  47  64 SE5       30.35S                  
HILLSBORO      CLOUDY    57  47  69 S8        30.35S                  
AURORA         CLOUDY    58  47  66 VRB5      30.37S                  
MCMINNVILLE    CLOUDY    58  48  69 SE6       30.35S                  
SALEM          CLOUDY    61  46  57 S7        30.35S                  
CORVALLIS      CLOUDY    59  47  64 CALM      30.37S                  
EUGENE         MOSUNNY   63  47  55 VRB3      30.35S                  
$$

ORZ021-028-172100-
SOUTHWEST OREGON

  
CITY           SKY/WX    TMP DP  RH WIND       PRES   REMARKS
NORTH BEND     MOSUNNY   57  48  72 W9        30.38S                  
BROOKINGS      SUNNY     58  49  72 NW14G20   30.31F                  
ROSEBURG       MOSUNNY   64  44  48 SW7       30.32S                  
SEXTON SUMMIT  MOSUNNY   57  44  62 CALM      30.32S                  
GRANTS PASS    FAIR      66  43  42 CALM      30.32F                  
MEDFORD        MOSUNNY   65  38  36 N7        30.30F                  
$$

ORZ014>016-041-172100-
COLUMBIA GORGE

  
CITY           SKY/WX    TMP DP  RH WIND       PRES   REMARKS
TROUTDALE      CLOUDY    59  46  62 NE3       30.36F                  
HOOD RIVER     SUNNY     59  45  58 MISG      30.33S                  
THE DALLES     SUNNY     64  45  49 NW21G26   30.30S                  
$$

ORZ029>031-041-044-049-050-061>064-502-503-505>511-172100-
EASTERN OREGON

  
CITY           SKY/WX    TMP DP  RH WIND       PRES   REMARKS
MADRAS         SUNNY     59  41  51 NE3       30.32S                  
REDMOND        SUNNY     62  39  42 NW6       30.29F                  
BEND           SUNNY     61  36  39 SW7       30.29S                  
PRINEVILLE     MOSUNNY   57  39  51 NW7G13    30.30F                  
KLAMATH FALLS  SUNNY     60  39  45 N9        30.30F                  
LAKEVIEW       MOSUNNY   55  31  39 S6        30.32S                  
HERMISTON      SUNNY     66  42  41 W20G29    30.25F                  
PENDLETON      MOSUNNY   61  43  51 W10G21    30.27S                  
JOHN DAY       SUNNY     55  40  56 W12G17    30.29S                  
MEACHAM        CLOUDY    49  37  63 VRB5      30.28R                  
LA GRANDE      CLOUDY    49  38  65 SE9       30.31R                  
BAKER CITY     PTSUNNY   57  39  51 NW15      30.28R                  
BURNS          SUNNY     59  39  47 W12       30.27F                  
ROME             N/A     59  34  39 CALM      30.24F                  
ONTARIO        SUNNY     64  39  39 NW14      30.25R                  
$$